SCP
0 0 0 0 0 0 0 0 0 0 0 -0 -0 -0 -0 -0 -0 -0 -0 -0 -0 -0 -0 -0 -0 0 0 0 0 0 0 0 -0 0 0 0 0 0 0 0 0 0 0 0 0 0 0
0 0 0 0 0 0 0 0 0 0 0 -0 -0 -0 -0 -0 -0 -0 -0 -0 -0 -0 -0 0 -0 0 0 0 0 0 0 0 0 -0 0 0 0 0 0 0 0 0 0 0 0 0 0
0 0 0 0 0 0 0 0 0 0 0 0 -0 -0 -0 -0 -0 -0 -0 -0 -0 -0 -0 -0 -0 0 0 0 0 0 0 0 0 0 0 0 0 0 0 0 0 0 0 0 0 0 0
0 0 0 0 0 0 0 0 0 0 0 0 0 -0 -0 -0 -0 -0 -0 -0 -0 0 0 0 0 0 0 0 -0 0 0 -0 0 0 0 0 0 0 0 0 0 0 0 0 0 0 0
0 0 0 0 0 0 0 0 0 0 0 0 0 0 -0 -0 -0 -0 -0 -0 -0 0 0 0 0 0 0 0 0 0 0 0 0 0 0 0 0 0 0 0 0 0 0 0 0 0 0
0 0 0 0 0 0 0 0 0 0 0 0 0 0 -0 -0 -0 -0 -0 -0 0 0 0 0 -0 0 0 0 0 0 0 0 0 0 0 0 0 0 0 0 0 0 0 0 0 0 0
0 0 0 0 0 0 0 0 0 0 0 0 0 0 0 0 0 0 0 0 0 0 0 0 0 0 0 -0 -0 0 0 0 0 0 0 0 0 0 0 0 0 0 0 0 0 0 0
0 0 0 0 0 0 0 0 0 0 0 0 0 0 0 0 0 0 0 0 0 -0 0 0 -0 -0 -0 -0 0 0 0 0 0 0 0 0 0 0 0 0 0 0 0 0 0 0 0
0 0 0 0 0 0 0 0 0 0 0 -0 0 0 0 0 0 0 0 0 -0 0 0 0 0 0 0 0 0 0 0 0 0 0 0 0 0 0 0 0 0 0 0 0 0 0 0
0 0 0 0 0 0 -0 -0 -0 -0 -0 -0 0 0 0 0 0 0 0 -0 -0 0 0 0 0 0 0 0 0 0 0 0 0 0 0 0 0 0 0 0 0 0 0 0 0 0 0
0 0 0 0 0 0 0 -0 -0 -0 -0 -0 0 -0 0 0 0 0 0 -0 -0 0 0 0 0 0 0 0 0 0 0 0 0 0 0 0 0 0 0 0 0 0 0 0 0 0 0
0 0 0 0 0 0 0 -0 -0 -0 -0 0 0 -0 0 0 0 0 -0 0 0 0 0 0 0 0 0 0 0 0 0 0 0 0 0 -0 0 0 0 0 0 0 0 0 -0 0 0
0 0 -0 -0 0 0 0 0 -0 -0 -0 -0 0 -0 0 0 0 0 0 0 0 0 0 0 0 0 0 0 0 0 0 0 0 0 0 0 0 0 0 0 0 0 0 0 0 0 0
0 0 0 0 -0 0 0 0 0 0 -0 -0 -0 0 0 0 0 0 0 0 0 0 0 0 0 0 0 0 0 0 0 0 0 0 0 0 0 0 0 0 0 0 0 0 0 0 0
0 0 0 0 0 0 0 0 0 0 0 -0 0 0 0 0 0 0 0 0 0 0 0 0 0 0 0 0 0 0 0 0 0 0 0 0 0 0 0 0 0 0 0 0 0 0 0
0 0 0 0 0 0 0 0 0 0 0 0 0 0 0 0 0 0 0 0 0 0 0 0 0 0 0 0 0 0 0 0 0 0 0 0 0 0 0 0 0 0 0 0 0 0 0
0 0 0 0 0 0 0 0 0 0 0 -0 0 0 0 0 0 0 0 0 0 0 0 0 0 0 0 0 0 0 0 0 0 0 0 0 0 0 0 0 0 0 0 0 0 0 0
0 0 0 0 0 0 0 0 0 0 0 0 0 0 0 0 0 0 0 0 0 0 0 0 0 0 0 0 0 0 0 0 0 0 0 0 0 0 0 0 0 0 0 0 0 0 0
0 0 0 0 0 0 0 0 0 0 0 0 0 0 0 0 0 0 0 0 0 0 0 0 0 0 0 0 0 0 0 0 0 0 0 0 0 0 0 0 0 0 0 0 0 0 0
0 0 0 0 0 0 0 0 0 0 0 0 0 0 0 0 0 0 0 0 0 0 0 0 0 0 0 0 0 0 0 0 0 0 0 0 0 0 0 0 0 0 0 0 0 0 0
0 0 0 0 0 0 0 0 0 0 0 0 0 0 0 0 0 0 0 0 0 0 0 0 0 0 0 0 0 0 0 0 0 0 0 0 0 0 -0 -0 0 0 -0 -0 -0 -0 -0
0 0 0 0 0 0 0 0 0 0 0 0 0 0 0 0 0 0 0 0 0 0 0 0 0 0 0 0 0 0 0 0 0 0 0 0 0 0 -0 0 -0 -0 -0 -0 -0 -0 -0
0 0 0 0 0 0 0 0 0 0 0 0 0 0 0 0 0 0 0 0 0 0 0 0 0 0 0 0 0 0 0 0 0 0 0 0 0 0 0 0 -0 -0 -0 0 0 0 -0
0 0 0 0 0 0 0 0 0 0 0 0 0 0 0 0 0 0 0 0 0 0 0 0 0 0 0 0 0 0 0 0 -0 -0 -0 -0 0 -0 0 -0 -0 -0 0 0 0 0 0
0 0 0 0 0 0 0 0 0 0 0 0 0 0 0 0 0 0 0 0 0 0 0 0 0 0 0 0 0 0 0 0 0 0 -0 -0 0 0 0 0 -0 -0 0 0 0 0 0
0 0 0 0 0 0 0 0 0 0 0 0 0 0 0 0 0 0 0 0 0 0 0 0 0 0 0 0 0 0 0 0 0 0 -0 -0 0 0 0 0 0 0 0 0 0 0 0
0 0 0 0 0 0 0 0 0 0 0 0 0 0 0 0 0 0 0 0 0 0 0 0 0 0 0 0 0 0 0 0 0 0 0 0 0 0 0 0 0 0 0 0 0 0 0
0 0 0 0 0 0 0 0 0 0 0 0 0 0 0 0 0 0 0 0 0 0 0 0 0 0 0 0 0 0 0 0 0 0 0 0 0 0 0 0 0 0 0 0 0 0 0
0 0 0 0 0 0 0 0 0 0 0 0 0 0 0 0 0 0 -0 -0 -0 -0 0 0 0 0 0 0 0 0 0 0 0 0 0 0 0 0 0 0 -0 0 0 0 0 0 0
Wind_Speed_500mb
41 42 42 42 40 38 37 37 38 37 34 32 29 28 28 27 24 23 21 16 12 13 12 9 8 8 4 8 6 8 5 7 11 8 4 5 6 11 21 16 25 32 38 25 35 45 49
46 43 41 41 42 42 40 41 40 39 37 34 32 28 25 23 22 21 18 13 11 11 11 8 7 6 3 15 14 7 2 4 2 1 1 2 2 4 11 21 19 9 28 33 37 37 43
44 40 40 41 42 44 44 43 43 42 39 33 31 29 25 20 16 12 10 8 7 6 6 6 5 6 11 2 14 10 2 5 8 5 5 5 4 9 5 14 13 24 27 30 36 41 44
52 42 38 43 45 46 46 45 44 42 40 36 30 25 23 20 14 9 7 7 6 4 5 4 4 4 9 15 19 11 10 10 10 8 9 9 8 14 16 6 18 22 23 29 28 22 38
54 50 47 47 48 47 47 47 48 44 42 36 30 23 18 14 7 9 5 10 4 2 1 3 1 3 6 13 11 8 9 7 7 8 10 7 12 18 13 22 20 21 26 17 14 9 9
53 52 55 55 50 48 45 46 49 50 47 35 27 20 12 5 5 11 2 7 5 1 4 2 5 9 9 14 11 12 10 11 11 9 10 16 18 19 19 18 19 11 17 15 22 13 17
52 56 56 57 57 53 49 49 48 49 47 35 26 17 8 3 4 8 9 6 5 5 10 11 3 9 5 5 12 17 11 10 11 16 19 15 19 23 14 8 17 16 18 21 15 12 20
56 56 56 55 57 58 56 52 52 49 42 38 25 13 4 9 6 6 12 4 8 9 12 12 15 19 16 9 9 18 20 18 17 17 7 18 26 14 5 12 17 21 25 25 17 16 18
53 58 60 54 54 58 58 56 55 52 44 32 23 12 3 13 6 6 9 8 14 13 12 5 8 9 12 18 12 11 26 22 19 19 14 20 8 7 19 17 19 24 24 24 22 25 31
53 56 59 62 55 57 58 58 58 56 44 30 21 11 8 15 8 4 2 17 16 8 9 18 12 9 10 9 11 14 22 18 13 18 10 16 12 16 19 22 22 29 13 17 20 24 24
52 56 59 63 63 57 55 57 57 56 43 27 18 11 14 12 13 3 13 20 8 3 9 13 11 6 7 17 10 15 14 24 31 21 15 8 21 21 23 26 17 26 3 18 24 29 35
48 54 57 61 64 60 59 52 52 53 40 26 16 14 13 9 5 9 15 3 2 11 8 13 9 9 14 16 15 10 14 17 17 28 31 36 23 18 24 7 17 2 19 25 34 26 29
44 47 53 58 64 60 57 55 51 48 38 19 13 10 8 4 3 14 5 4 10 11 6 8 10 9 16 22 19 17 22 26 25 26 34 37 35 27 20 23 18 22 24 21 21 22 22
43 46 48 51 58 62 59 56 51 49 37 15 5 3 5 8 12 10 1 10 13 5 8 2 8 18 25 11 21 18 24 26 23 30 29 30 28 31 26 32 31 22 18 20 34 25 19
40 43 46 49 51 59 61 58 54 47 43 22 15 14 7 11 9 6 11 14 7 4 6 9 18 23 20 13 11 13 26 30 28 19 29 21 30 7 12 14 19 23 21 15 24 31 28
39 41 44 47 48 50 58 60 58 52 46 38 11 11 13 11 11 3 11 10 8 5 6 8 13 8 15 11 12 9 14 2 12 17 17 20 24 29 16 14 29 27 23 16 20 23 36
36 39 42 46 47 48 52 59 60 56 51 39 3 8 10 9 11 12 9 8 10 9 11 10 16 22 24 25 23 25 14 13 13 13 16 24 21 28 18 28 32 17 25 24 28 26 23
37 38 39 42 45 47 49 55 61 59 49 42 4 5 7 8 11 5 9 5 8 20 17 21 17 27 34 31 32 32 29 22 4 16 22 25 14 27 36 33 24 26 35 31 23 29 22
34 36 39 38 42 44 45 50 56 58 54 44 16 6 7 5 6 6 10 19 14 19 14 8 11 11 10 20 18 22 23 19 19 22 16 15 18 23 31 17 10 24 35 32 32 31 38
33 38 36 39 39 41 43 43 49 51 46 30 10 5 0 6 8 10 9 10 9 7 21 15 18 19 23 29 29 22 23 12 12 21 6 12 30 35 32 38 11 14 15 25 34 26 33
31 36 34 38 38 40 42 40 42 44 40 23 12 4 5 6 2 17 7 9 18 11 9 14 10 11 16 18 25 33 33 28 26 27 27 22 39 41 43 44 41 45 42 43 45 43 45
37 34 37 36 38 38 39 36 35 38 35 12 10 10 8 18 13 16 3 6 16 14 10 16 23 25 23 29 30 39 39 39 38 29 28 31 36 37 46 42 43 46 45 51 52 52 54
43 33 37 36 39 37 35 36 34 33 32 8 13 9 5 11 6 9 8 9 12 14 17 21 22 24 26 31 41 44 45 44 35 30 26 22 13 12 28 31 25 29 42 42 49 50 44
43 36 36 40 39 38 31 32 31 30 30 21 11 6 7 9 9 13 16 24 27 26 31 38 32 29 21 28 45 51 54 51 47 40 41 33 29 15 18 25 22 27 13 19 27 28 26
58 42 37 39 38 38 32 28 27 27 25 23 16 3 6 9 17 19 16 24 27 28 29 33 29 16 23 30 20 17 12 10 4 9 16 29 24 10 9 19 32 41 18 10 18 29 30
69 57 49 45 36 36 36 29 22 23 23 23 19 5 6 12 2 13 19 21 19 20 18 10 9 19 13 15 8 13 4 10 3 11 10 8 12 7 9 11 9 6 8 8 13 24 17
71 57 58 59 51 35 37 32 26 19 20 21 18 10 4 15 13 8 12 16 13 12 13 16 8 4 10 9 5 6 6 4 5 8 3 10 7 22 22 14 18 10 5 7 12 12 37
60 60 55 63 55 44 31 31 28 23 18 18 17 13 7 13 30 15 14 21 16 13 11 11 10 9 10 5 4 5 6 6 11 14 16 8 7 8 11 12 10 8 11 17 35 53 56
61 59 57 59 58 50 29 29 30 27 23 16 10 16 15 18 23 34 33 35 33 25 13 6 8 8 9 5 2 6 5 8 13 7 3 7 6 10 9 11 35 46 35 51 50 49 54
Wind_Direction_500mb
5 3 1 0 1 3 3 359 352 345 341 338 336 336 337 332 325 318 312 298 273 264 259 272 316 322 342 244 159 168 98 53 46 50 78 86 193 229 239 243 234 243 254 245 254 252 254
9 9 12 10 7 5 5 1 355 348 342 337 334 334 336 336 329 323 315 304 287 267 251 266 314 320 295 243 190 183 147 38 244 346 185 164 41 276 271 249 236 305 258 252 248 250 251
8 7 10 11 7 3 1 360 358 356 349 343 340 337 336 334 333 330 323 317 309 285 248 254 302 319 256 257 189 200 206 241 252 246 255 233 250 259 300 243 255 266 261 245 240 245 251
6 10 13 9 4 2 360 359 359 359 358 351 343 342 338 336 343 351 347 335 309 273 241 242 287 320 253 207 206 223 252 250 241 261 261 256 242 273 255 272 241 249 244 254 232 240 246
12 8 7 5 2 2 1 359 357 356 355 353 346 344 343 343 16 359 31 17 15 122 192 219 180 217 166 197 202 216 200 245 224 255 252 234 231 261 230 239 240 208 264 216 208 222 278
11 9 4 2 3 5 4 2 357 352 348 349 350 344 348 357 65 25 13 38 61 52 29 60 232 227 199 164 196 212 236 243 237 233 227 223 232 240 226 236 259 254 240 214 259 180 256
9 8 6 5 2 3 5 2 0 355 350 348 349 346 349 143 111 33 19 3 308 208 244 260 191 286 199 226 218 214 209 198 225 238 252 198 257 231 256 279 309 283 269 264 264 269 266
4 5 7 5 4 3 2 3 2 359 356 351 348 350 2 155 138 81 52 27 22 316 293 250 246 248 246 231 243 226 208 220 215 251 230 229 238 259 247 259 257 256 261 259 266 275 280
4 4 4 5 5 4 1 1 0 359 359 3 1 353 106 158 147 110 78 36 350 342 262 179 215 217 203 211 247 218 200 216 239 245 234 270 1 261 218 221 258 252 265 280 283 307 281
1 3 4 3 4 6 4 1 360 359 359 7 14 30 124 144 109 117 20 333 335 337 268 147 190 169 186 223 239 208 215 228 225 262 223 258 145 209 225 251 267 272 258 273 271 276 282
360 1 2 3 1 4 7 4 0 359 358 6 26 59 128 132 137 5 300 319 315 299 271 126 157 155 218 240 351 178 221 230 252 230 232 219 200 222 247 267 291 277 275 264 279 276 283
358 1 0 0 3 1 2 7 5 1 359 7 35 88 114 121 61 335 326 329 169 231 250 173 184 209 245 215 239 273 239 230 268 262 240 258 261 261 269 259 240 310 247 247 253 265 262
353 359 360 359 0 0 2 3 5 5 2 5 49 88 101 85 291 332 358 170 235 251 103 181 225 233 269 266 259 250 257 240 241 237 239 236 235 228 241 227 200 230 250 274 269 224 255
348 352 356 359 360 360 359 360 4 1 4 336 330 339 318 319 323 336 235 221 248 31 258 52 268 277 266 278 247 262 262 259 224 261 268 275 254 201 199 235 264 231 269 279 285 276 273
341 346 350 356 359 359 358 358 358 1 356 346 277 272 274 313 331 339 229 232 277 341 352 297 293 267 264 237 266 269 266 270 271 222 254 281 250 148 250 234 235 250 232 301 288 271 264
334 339 345 349 353 358 357 357 356 356 355 349 271 233 245 293 332 264 237 257 276 251 298 269 279 266 272 256 250 252 281 342 264 246 251 279 274 256 246 238 242 248 286 241 216 265 259
327 331 339 343 347 352 355 355 355 355 354 355 46 249 238 312 324 233 248 292 290 273 256 264 270 268 273 277 281 280 268 274 245 253 245 276 257 271 214 240 256 199 225 224 269 267 256
319 325 332 338 341 344 351 354 353 354 357 0 358 236 275 324 258 251 265 329 335 278 263 263 265 266 271 275 274 273 263 256 237 276 251 244 271 269 262 253 269 262 272 250 243 246 237
312 317 325 331 334 338 344 352 352 355 354 355 333 293 310 335 275 289 310 282 269 279 269 267 260 251 294 273 276 263 271 293 296 259 267 279 248 269 262 236 248 243 245 247 257 252 259
308 309 318 323 329 333 338 350 352 355 352 350 340 301 302 49 4 313 322 289 276 245 272 264 272 275 270 266 258 265 272 249 232 276 349 291 265 260 270 292 158 241 259 258 233 240 252
298 302 310 317 324 329 332 343 351 355 355 355 1 9 331 301 176 318 278 288 299 292 242 274 251 254 292 276 276 273 274 276 268 262 257 254 265 270 275 277 276 276 266 260 252 246 250
291 299 305 313 317 321 324 333 348 352 2 14 353 335 301 287 294 290 262 278 299 304 265 278 267 292 286 273 278 290 294 282 277 274 263 257 261 269 267 269 268 272 274 258 258 262 263
285 293 300 307 310 312 319 325 339 351 3 18 341 300 275 272 251 278 305 300 301 304 281 264 287 294 281 281 294 289 282 279 271 273 265 268 270 294 265 266 288 262 256 256 253 253 253
278 292 295 298 301 303 312 317 327 341 355 355 346 309 280 281 262 285 293 300 291 290 279 281 286 280 283 303 297 281 263 256 252 249 243 250 258 277 270 288 261 260 302 285 285 287 274
274 268 281 290 295 298 304 306 313 326 342 345 342 336 282 278 296 292 294 301 297 287 274 283 293 281 293 289 280 276 194 207 112 273 261 241 235 232 246 228 269 293 308 286 304 293 299
276 269 254 256 279 297 298 295 299 311 323 338 325 298 273 290 349 309 304 302 304 310 291 242 284 293 280 274 278 271 304 340 146 148 245 167 212 233 217 257 269 40 20 350 310 277 44
270 263 258 258 257 268 290 288 293 296 312 327 305 311 272 270 285 289 287 319 300 284 279 296 333 291 237 261 289 301 313 305 276 294 212 158 165 217 237 260 277 34 44 308 272 337 321
270 256 255 262 257 251 269 276 284 287 301 315 290 298 252 268 284 260 263 272 267 261 285 359 272 187 253 267 325 317 286 352 272 308 295 287 278 209 223 238 265 66 311 292 316 312 310
273 255 253 259 256 253 244 259 277 277 280 298 282 286 282 260 267 285 272 258 243 242 289 256 308 297 341 307 306 303 307 304 346 296 258 283 327 292 263 284 313 315 335 327 317 289 299
Wind_Speed_850mb
41 42 42 42 40 38 37 37 38 37 34 32 29 28 28 27 24 23 21 16 12 13 12 9 8 8 4 8 6 8 5 7 11 8 4 5 6 11 21 16 25 32 38 25 35 45 49
46 43 41 41 42 42 40 41 40 39 37 34 32 28 25 23 22 21 18 13 11 11 11 8 7 6 3 15 14 7 2 4 2 1 1 2 2 4 11 21 19 9 28 33 37 37 43
44 40 40 41 42 44 44 43 43 42 39 33 31 29 25 20 16 12 10 8 7 6 6 6 5 6 11 2 14 10 2 5 8 5 5 5 4 9 5 14 13 24 27 30 36 41 44
52 42 38 43 45 46 46 45 44 42 40 36 30 25 23 20 14 9 7 7 6 4 5 4 4 4 9 15 19 11 10 10 10 8 9 9 8 14 16 6 18 22 23 29 28 22 38
54 50 47 47 48 47 47 47 48 44 42 36 30 23 18 14 7 9 5 10 4 2 1 3 1 3 6 13 11 8 9 7 7 8 10 7 12 18 13 22 20 21 26 17 14 9 9
53 52 55 55 50 48 45 46 49 50 47 35 27 20 12 5 5 11 2 7 5 1 4 2 5 9 9 14 11 12 10 11 11 9 10 16 18 19 19 18 19 11 17 15 22 13 17
52 56 56 57 57 53 49 49 48 49 47 35 26 17 8 3 4 8 9 6 5 5 10 11 3 9 5 5 12 17 11 10 11 16 19 15 19 23 14 8 17 16 18 21 15 12 20
56 56 56 55 57 58 56 52 52 49 42 38 25 13 4 9 6 6 12 4 8 9 12 12 15 19 16 9 9 18 20 18 17 17 7 18 26 14 5 12 17 21 25 25 17 16 18
53 58 60 54 54 58 58 56 55 52 44 32 23 12 3 13 6 6 9 8 14 13 12 5 8 9 12 18 12 11 26 22 19 19 14 20 8 7 19 17 19 24 24 24 22 25 31
53 56 59 62 55 57 58 58 58 56 44 30 21 11 8 15 8 4 2 17 16 8 9 18 12 9 10 9 11 14 22 18 13 18 10 16 12 16 19 22 22 29 13 17 20 24 24
52 56 59 63 63 57 55 57 57 56 43 27 18 11 14 12 13 3 13 20 8 3 9 13 11 6 7 17 10 15 14 24 31 21 15 8 21 21 23 26 17 26 3 18 24 29 35
48 54 57 61 64 60 59 52 52 53 40 26 16 14 13 9 5 9 15 3 2 11 8 13 9 9 14 16 15 10 14 17 17 28 31 36 23 18 24 7 17 2 19 25 34 26 29
44 47 53 58 64 60 57 55 51 48 38 19 13 10 8 4 3 14 5 4 10 11 6 8 10 9 16 22 19 17 22 26 25 26 34 37 35 27 20 23 18 22 24 21 21 22 22
43 46 48 51 58 62 59 56 51 49 37 15 5 3 5 8 12 10 1 10 13 5 8 2 8 18 25 11 21 18 24 26 23 30 29 30 28 31 26 32 31 22 18 20 34 25 19
40 43 46 49 51 59 61 58 54 47 43 22 15 14 7 11 9 6 11 14 7 4 6 9 18 23 20 13 11 13 26 30 28 19 29 21 30 7 12 14 19 23 21 15 24 31 28
39 41 44 47 48 50 58 60 58 52 46 38 11 11 13 11 11 3 11 10 8 5 6 8 13 8 15 11 12 9 14 2 12 17 17 20 24 29 16 14 29 27 23 16 20 23 36
36 39 42 46 47 48 52 59 60 56 51 39 3 8 10 9 11 12 9 8 10 9 11 10 16 22 24 25 23 25 14 13 13 13 16 24 21 28 18 28 32 17 25 24 28 26 23
37 38 39 42 45 47 49 55 61 59 49 42 4 5 7 8 11 5 9 5 8 20 17 21 17 27 34 31 32 32 29 22 4 16 22 25 14 27 36 33 24 26 35 31 23 29 22
34 36 39 38 42 44 45 50 56 58 54 44 16 6 7 5 6 6 10 19 14 19 14 8 11 11 10 20 18 22 23 19 19 22 16 15 18 23 31 17 10 24 35 32 32 31 38
33 38 36 39 39 41 43 43 49 51 46 30 10 5 0 6 8 10 9 10 9 7 21 15 18 19 23 29 29 22 23 12 12 21 6 12 30 35 32 38 11 14 15 25 34 26 33
31 36 34 38 38 40 42 40 42 44 40 23 12 4 5 6 2 17 7 9 18 11 9 14 10 11 16 18 25 33 33 28 26 27 27 22 39 41 43 44 41 45 42 43 45 43 45
37 34 37 36 38 38 39 36 35 38 35 12 10 10 8 18 13 16 3 6 16 14 10 16 23 25 23 29 30 39 39 39 38 29 28 31 36 37 46 42 43 46 45 51 52 52 54
43 33 37 36 39 37 35 36 34 33 32 8 13 9 5 11 6 9 8 9 12 14 17 21 22 24 26 31 41 44 45 44 35 30 26 22 13 12 28 31 25 29 42 42 49 50 44
43 36 36 40 39 38 31 32 31 30 30 21 11 6 7 9 9 13 16 24 27 26 31 38 32 29 21 28 45 51 54 51 47 40 41 33 29 15 18 25 22 27 13 19 27 28 26
58 42 37 39 38 38 32 28 27 27 25 23 16 3 6 9 17 19 16 24 27 28 29 33 29 16 23 30 20 17 12 10 4 9 16 29 24 10 9 19 32 41 18 10 18 29 30
69 57 49 45 36 36 36 29 22 23 23 23 19 5 6 12 2 13 19 21 19 20 18 10 9 19 13 15 8 13 4 10 3 11 10 8 12 7 9 11 9 6 8 8 13 24 17
71 57 58 59 51 35 37 32 26 19 20 21 18 10 4 15 13 8 12 16 13 12 13 16 8 4 10 9 5 6 6 4 5 8 3 10 7 22 22 14 18 10 5 7 12 12 37
60 60 55 63 55 44 31 31 28 23 18 18 17 13 7 13 30 15 14 21 16 13 11 11 10 9 10 5 4 5 6 6 11 14 16 8 7 8 11 12 10 8 11 17 35 53 56
61 59 57 59 58 50 29 29 30 27 23 16 10 16 15 18 23 34 33 35 33 25 13 6 8 8 9 5 2 6 5 8 13 7 3 7 6 10 9 11 35 46 35 51 50 49 54
Wind_Direction_850mb
5 3 1 0 1 3 3 359 352 345 341 338 336 336 337 332 325 318 312 298 273 264 259 272 316 322 342 244 159 168 98 53 46 50 78 86 193 229 239 243 234 243 254 245 254 252 254
9 9 12 10 7 5 5 1 355 348 342 337 334 334 336 336 329 323 315 304 287 267 251 266 314 320 295 243 190 183 147 38 244 346 185 164 41 276 271 249 236 305 258 252 248 250 251
8 7 10 11 7 3 1 360 358 356 349 343 340 337 336 334 333 330 323 317 309 285 248 254 302 319 256 257 189 200 206 241 252 246 255 233 250 259 300 243 255 266 261 245 240 245 251
6 10 13 9 4 2 360 359 359 359 358 351 343 342 338 336 343 351 347 335 309 273 241 242 287 320 253 207 206 223 252 250 241 261 261 256 242 273 255 272 241 249 244 254 232 240 246
12 8 7 5 2 2 1 359 357 356 355 353 346 344 343 343 16 359 31 17 15 122 192 219 180 217 166 197 202 216 200 245 224 255 252 234 231 261 230 239 240 208 264 216 208 222 278
11 9 4 2 3 5 4 2 357 352 348 349 350 344 348 357 65 25 13 38 61 52 29 60 232 227 199 164 196 212 236 243 237 233 227 223 232 240 226 236 259 254 240 214 259 180 256
9 8 6 5 2 3 5 2 0 355 350 348 349 346 349 143 111 33 19 3 308 208 244 260 191 286 199 226 218 214 209 198 225 238 252 198 257 231 256 279 309 283 269 264 264 269 266
4 5 7 5 4 3 2 3 2 359 356 351 348 350 2 155 138 81 52 27 22 316 293 250 246 248 246 231 243 226 208 220 215 251 230 229 238 259 247 259 257 256 261 259 266 275 280
4 4 4 5 5 4 1 1 0 359 359 3 1 353 106 158 147 110 78 36 350 342 262 179 215 217 203 211 247 218 200 216 239 245 234 270 1 261 218 221 258 252 265 280 283 307 281
1 3 4 3 4 6 4 1 360 359 359 7 14 30 124 144 109 117 20 333 335 337 268 147 190 169 186 223 239 208 215 228 225 262 223 258 145 209 225 251 267 272 258 273 271 276 282
360 1 2 3 1 4 7 4 0 359 358 6 26 59 128 132 137 5 300 319 315 299 271 126 157 155 218 240 351 178 221 230 252 230 232 219 200 222 247 267 291 277 275 264 279 276 283
358 1 0 0 3 1 2 7 5 1 359 7 35 88 114 121 61 335 326 329 169 231 250 173 184 209 245 215 239 273 239 230 268 262 240 258 261 261 269 259 240 310 247 247 253 265 262
353 359 360 359 0 0 2 3 5 5 2 5 49 88 101 85 291 332 358 170 235 251 103 181 225 233 269 266 259 250 257 240 241 237 239 236 235 228 241 227 200 230 250 274 269 224 255
348 352 356 359 360 360 359 360 4 1 4 336 330 339 318 319 323 336 235 221 248 31 258 52 268 277 266 278 247 262 262 259 224 261 268 275 254 201 199 235 264 231 269 279 285 276 273
341 346 350 356 359 359 358 358 358 1 356 346 277 272 274 313 331 339 229 232 277 341 352 297 293 267 264 237 266 269 266 270 271 222 254 281 250 148 250 234 235 250 232 301 288 271 264
334 339 345 349 353 358 357 357 356 356 355 349 271 233 245 293 332 264 237 257 276 251 298 269 279 266 272 256 250 252 281 342 264 246 251 279 274 256 246 238 242 248 286 241 216 265 259
327 331 339 343 347 352 355 355 355 355 354 355 46 249 238 312 324 233 248 292 290 273 256 264 270 268 273 277 281 280 268 274 245 253 245 276 257 271 214 240 256 199 225 224 269 267 256
319 325 332 338 341 344 351 354 353 354 357 0 358 236 275 324 258 251 265 329 335 278 263 263 265 266 271 275 274 273 263 256 237 276 251 244 271 269 262 253 269 262 272 250 243 246 237
312 317 325 331 334 338 344 352 352 355 354 355 333 293 310 335 275 289 310 282 269 279 269 267 260 251 294 273 276 263 271 293 296 259 267 279 248 269 262 236 248 243 245 247 257 252 259
308 309 318 323 329 333 338 350 352 355 352 350 340 301 302 49 4 313 322 289 276 245 272 264 272 275 270 266 258 265 272 249 232 276 349 291 265 260 270 292 158 241 259 258 233 240 252
298 302 310 317 324 329 332 343 351 355 355 355 1 9 331 301 176 318 278 288 299 292 242 274 251 254 292 276 276 273 274 276 268 262 257 254 265 270 275 277 276 276 266 260 252 246 250
291 299 305 313 317 321 324 333 348 352 2 14 353 335 301 287 294 290 262 278 299 304 265 278 267 292 286 273 278 290 294 282 277 274 263 257 261 269 267 269 268 272 274 258 258 262 263
285 293 300 307 310 312 319 325 339 351 3 18 341 300 275 272 251 278 305 300 301 304 281 264 287 294 281 281 294 289 282 279 271 273 265 268 270 294 265 266 288 262 256 256 253 253 253
278 292 295 298 301 303 312 317 327 341 355 355 346 309 280 281 262 285 293 300 291 290 279 281 286 280 283 303 297 281 263 256 252 249 243 250 258 277 270 288 261 260 302 285 285 287 274
274 268 281 290 295 298 304 306 313 326 342 345 342 336 282 278 296 292 294 301 297 287 274 283 293 281 293 289 280 276 194 207 112 273 261 241 235 232 246 228 269 293 308 286 304 293 299
276 269 254 256 279 297 298 295 299 311 323 338 325 298 273 290 349 309 304 302 304 310 291 242 284 293 280 274 278 271 304 340 146 148 245 167 212 233 217 257 269 40 20 350 310 277 44
270 263 258 258 257 268 290 288 293 296 312 327 305 311 272 270 285 289 287 319 300 284 279 296 333 291 237 261 289 301 313 305 276 294 212 158 165 217 237 260 277 34 44 308 272 337 321
270 256 255 262 257 251 269 276 284 287 301 315 290 298 252 268 284 260 263 272 267 261 285 359 272 187 253 267 325 317 286 352 272 308 295 287 278 209 223 238 265 66 311 292 316 312 310
273 255 253 259 256 253 244 259 277 277 280 298 282 286 282 260 267 285 272 258 243 242 289 256 308 297 341 307 306 303 307 304 346 296 258 283 327 292 263 284 313 315 335 327 317 289 299